Tracking 18852 objects as of 24-Nov-2017
HD Live streaming from Space Station
objects crossing your sky now

FENGYUN 1C DEB

Track FENGYUN 1C DEB now!
10-day predictions


NORAD ID: 31920
Int'l Code: 1999-025CLX
Perigee: 505.2 km
Apogee: 750.2 km
Inclination: 98.8 °
Period: 97.1 minutes
Semi major axis: 6998 km
RCS: 0.0161 m2 (small)
Launch date: May 10, 1999
Source: People's Republic of China (PRC)
Launch site: Taiyaun Space Center, China (TSC)

Note: This is SATELLITE DEBRIS
aabbcc
Your satellite tracking list
Your tracking list is empty




NASA's NSSDC Master Catalog

Two Line Element Set (TLE):
1 31920U 99025CLX 17327.76699058  .00001105  00000-0  11225-3 0  9991
2 31920  98.8175 308.1543 0175055 213.6626 145.3368 14.82787140563431
Source of the keplerian elements: AFSPC